Location: Eurasberg
(48.3353°N, 11.0839°E)
Time: 06:48:10
(UTC+00:00)

NOSS 2-2 (C) - Pass Details

Date: 18 January 2026
Orbit: 379 x 1692 km, 63.3° (Epoch: 10 February)

Event Time Altitude Azimuth Distance (km) Brightness Sun altitude
Rises 06:20:02 0° 228° (SW) 2,512 6.4 -6.7°
Reaches altitude 10° 06:22:18 10° 232° (SW) 1,528 5.3 -6.4°
Maximum altitude 06:25:30 59° 313° (NW) 458 2.6 -5.9°
Drops below altitude 10° 06:28:28 10° 35° (NE) 1,405 5.5 -5.4°
Sets 06:30:28 0° 39° (NE) 2,279 6.7 -5.1°
